Location: Beverley
(50.2667°N, 107.9667°W)
Time: 07:52:05
(UTC+00:00)

ESTCUBE 1 - Visible Passes

Search period start: 25 June 2022 00:00
Search period end: 05 July 2022 00:00
Orbit: 644 x 659 km, 97.9° (Epoch: 24 June)

Date Brightness Start Highest point End Pass type
(mag) Time Alt. Az. Time Alt. Az. Time Alt. Az.
25 Jun ? 04:11:17 10° ESE 04:15:04 28° ENE 04:18:52 10° N visible
25 Jun ? 05:48:21 15° SSW 05:51:41 39° W 05:55:55 10° NNW visible
26 Jun ? 04:37:51 11° SE 04:41:55 47° ENE 04:46:13 10° N visible
26 Jun ? 06:15:40 11° SW 06:18:54 23° W 06:22:28 10° NW visible
27 Jun ? 05:05:10 15° SSE 05:08:51 83° ENE 05:13:21 10° NNW visible
27 Jun ? 06:44:07 10° WSW 06:46:13 13° W 06:48:20 10° WNW visible
28 Jun ? 05:32:28 16° S 05:35:54 55° W 05:40:19 10° NNW visible
29 Jun ? 04:22:15 10° SE 04:26:17 34° ENE 04:30:20 10° N visible
29 Jun ? 05:59:47 14° SSW 06:03:03 31° W 06:07:03 10° NNW visible
30 Jun ? 04:49:16 13° SSE 04:53:09 60° ENE 04:57:34 10° N visible
30 Jun ? 06:27:13 10° SW 06:30:17 18° W 06:33:24 10° NW visible
01 Jul ? 05:16:35 16° S 05:20:07 78° WSW 05:24:38 10° NNW visible
01 Jul ? 06:57:21 10° W 06:57:40 10° W 06:57:58 10° W visible
02 Jul ? 04:06:58 10° ESE 04:10:39 26° ENE 04:14:21 10° N visible
02 Jul ? 05:43:54 16° SSW 05:47:12 43° W 05:51:30 10° NNW visible
03 Jul ? 04:33:23 11° SE 04:37:27 43° ENE 04:41:43 10° N visible
03 Jul ? 06:11:12 12° SW 06:14:23 25° W 06:18:05 10° NW visible
04 Jul ? 05:00:42 15° SSE 05:04:22 76° ENE 05:08:52 10° N visible
04 Jul ? 06:39:14 10° WSW 06:41:41 14° W 06:44:08 10° NW visible
